DW3795 Weather Reports


Display with metric or nautical units.
time (UTC)temp
F
wind
direction
speed
MPH
gust
MPH
rain 1hr
in
rain 24hr
in
rain mn
in
humidity
%
barometer
mb
20260506210059 73 162 2.0 8.0 0.00 0.01 0.01 76 1010.5
20260506204602 73 261 7.0 14.0 0.00 0.01 0.01 75 1010.5
20260506203056 73 192 3.0 12.0 0.00 0.01 0.01 76 1010.8
20260506201557 72 227 4.0 14.0 0.00 0.01 0.01 76 1010.6
20260506200107 71 10 3.0 13.0 0.00 0.01 0.01 78 1010.5
20260506194553 70 10 3.0 13.0 0.00 0.01 0.01 79 1010.7
20260506193044 69 184 2.0 7.0 0.00 0.01 0.01 81 1010.8
20260506191541 68 190 3.0 10.0 0.00 0.01 0.01 81 1010.3
20260506190040 68 160 2.0 8.0 0.00 0.01 0.01 82 1010.5
20260506184536 68 169 1.0 5.0 0.00 0.01 0.01 83 1011.2
20260506183033 68 173 2.0 6.0 0.00 0.01 0.01 83 1012.0
20260506181535 68 270 2.0 10.0 0.00 0.01 0.01 83 1012.6
20260506180032 68 208 2.0 6.0 0.00 0.01 0.01 84 1012.7
20260506174530 67 190 3.0 8.0 0.00 0.01 0.01 85 1013.1
20260506173029 66 173 2.0 5.0 0.00 0.01 0.01 85 1013.1
20260506171538 66 167 2.0 10.0 0.00 0.01 0.01 85 1013.1
20260506170029 66 222 2.0 9.0 0.00 0.01 0.01 84 1013.3
20260506164527 66 221 2.0 6.0 0.00 0.01 0.01 85 1012.8
20260506163031 66 164 1.0 6.0 0.00 0.01 0.01 85 1012.9
20260506161536 65 181 3.0 7.0 0.01 0.01 0.01 86 1012.7
20260506160037 65 188 1.0 4.0 0.01 0.01 0.01 86 1012.9
20260506154521 64 201 1.0 4.0 0.01 0.01 0.01 85 1013.1
20260506153020 65 202 1.0 3.0 0.01 0.01 0.01 84 1013.0
20260506151530 65 201 1.0 4.0 0.00 0.00 0.00 83 1013.0
20260506150027 65 204 0.0 3.0 0.00 0.00 0.00 81 1013.1
20260506144516 65 212 0.0 5.0 0.00 0.00 0.00 79 1013.2
20260506143116 65 204 1.0 4.0 0.00 0.00 0.00 78 1013.0
20260506141514 65 233 1.0 8.0 0.00 0.00 0.00 77 1012.7
20260506140014 65 193 3.0 8.0 0.00 0.00 0.00 76 1012.6
20260506134512 66 285 2.0 9.0 0.00 0.00 0.00 74 1012.8
20260506133012 66 244 2.0 10.0 0.00 0.00 0.00 72 1012.6
20260506131515 66 180 3.0 10.0 0.00 0.00 0.00 72 1012.5
20260506130009 65 160 4.0 9.0 0.00 0.00 0.00 73 1012.9
20260506124505 65 187 2.0 8.0 0.00 0.00 0.00 74 1012.7
20260506123003 64 285 2.0 10.0 0.00 0.00 0.00 75 1012.5
20260506121501 64 256 5.0 10.0 0.00 0.00 0.00 75 1012.5
20260506114556 64 186 3.0 8.0 0.00 0.00 0.00 74 1012.3
20260506113104 64 170 5.0 10.0 0.00 0.00 0.00 74 1012.1
20260506111554 64 191 3.0 11.0 0.00 0.00 0.00 74 1012.2
20260506110059 63 196 4.0 11.0 0.00 0.00 0.00 74 1012.1
20260506104558 63 205 4.0 10.0 0.00 0.00 0.00 73 1012.0
20260506103049 63 183 2.0 10.0 0.00 0.00 0.00 73 1012.1
20260506101555 63 194 2.0 7.0 0.00 0.00 0.00 74 1012.0
20260506100047 63 185 5.0 12.0 0.00 0.00 0.00 74 1012.0
20260506094553 63 256 1.0 8.0 0.00 0.00 0.00 74 1011.9
20260506093047 63 227 3.0 9.0 0.00 0.00 0.00 74 1011.9
20260506091542 63 150 4.0 10.0 0.00 0.00 0.00 74 1012.3
20260506090043 63 146 5.0 9.0 0.00 0.00 0.00 75 1012.1
20260506084537 63 144 5.0 10.0 0.00 0.00 0.00 75 1012.4
20260506083037 63 208 5.0 11.0 0.00 0.00 0.00 75 1012.5
20260506081536 63 242 3.0 11.0 0.00 0.00 0.00 75 1012.6
20260506073031 64 220 2.0 14.0 0.00 0.00 0.00 75 1012.4
20260506071529 64 242 4.0 11.0 0.00 0.00 0.00 75 1012.5
20260506061518 65 110 4.0 11.0 0.00 0.00 0.00 73 1012.7
20260506044509 67 202 7.0 14.0 0.00 0.00 0.00 70 1013.5
20260506043004 67 212 3.0 8.0 0.00 0.00 0.00 69 1013.3
20260506041502 67 127 1.0 9.0 0.00 0.00 0.00 68 1013.3
20260506040059 67 215 3.0 9.0 0.00 0.00 0.00 66 1013.2
20260506034600 67 212 5.0 15.0 0.00 0.00 0.00 65 1013.1
20260506033111 66 133 2.0 6.0 0.00 0.00 0.00 63 1013.1
20260506031606 66 166 0.0 5.0 0.00 0.00 0.00 62 1013.2
20260506030056 66 219 2.0 6.0 0.00 0.00 0.00 62 1013.3
20260506024556 66 194 2.0 7.0 0.00 0.00 0.00 62 1013.3
20260506023054 66 225 2.0 6.0 0.00 0.00 0.00 63 1013.2
20260506021557 66 238 2.0 5.0 0.00 0.00 0.00 63 1013.2
20260506020054 66 231 0.0 3.0 0.00 0.00 0.00 62 1013.2
20260506014557 68 235 0.0 2.0 0.00 0.00 0.00 61 1013.1
20260506013053 69 237 0.0 2.0 0.00 0.00 0.00 59 1012.9
20260506011552 70 236 0.0 2.0 0.00 0.00 0.00 56 1012.9
20260506010051 71 239 0.0 1.0 0.00 0.00 0.00 55 1012.7
20260506004554 72 239 1.0 3.0 0.00 0.00 0.00 51 1012.6
20260506003049 74 264 0.0 5.0 0.00 0.00 0.00 50 1012.5
20260506001608 75 261 1.0 4.0 0.00 0.00 0.00 49 1012.3
20260506000049 76 220 1.0 6.0 0.00 0.00 0.00 47 1012.2
20260505234550 76 231 3.0 6.0 0.00 0.00 0.00 45 1012.1
20260505233053 77 174 2.0 9.0 0.00 0.00 0.00 44 1012.0
20260505231551 78 172 2.0 8.0 0.00 0.00 0.00 42 1011.9
20260505230046 78 206 2.0 10.0 0.00 0.00 0.00 41 1012.0
20260505224547 78 170 2.0 11.0 0.00 0.00 0.00 40 1012.1
20260505223053 79 184 6.0 15.0 0.00 0.00 0.00 39 1012.2
20260505221549 80 146 7.0 11.0 0.00 0.00 0.00 39 1012.0
20260505220043 80 162 3.0 12.0 0.00 0.00 0.00 41 1012.2
20260505214556 80 221 8.0 18.0 0.00 0.00 0.00 40 1012.4
20260505213052 81 191 5.0 16.0 0.00 0.00 0.00 38 1012.2
20260505211539 82 242 4.0 10.0 0.00 0.00 0.00 39 1012.2